#timestamp,LO_Frequency,Hit,StdDev 
1512878415.0,286046993.7,N
1512878415.9,286046993.7,N
1512878435.8,286046997.0,N
1512878455.6,286046991.8,N
1512878475.4,286046990.2,N
1512878495.3,286046991.4,N
1512878515.1,286046992.3,N
1512878516.0,286046992.3,N
1512878535.8,286046993.5,N
1512878555.7,286046995.1,N
1512878575.5,286046995.7,N
1512878595.3,286046997.6,N
1512878615.1,286046998.2,N
1512878635.9,286046998.3,N
1512878655.7,286046995.8,N
1512878675.5,286046996.3,N
1512878695.4,286046994.9,N
1512878715.2,286047000.2,N
1512878735.0,286047000.4,N
1512878735.9,286047000.4,N
1512878755.8,286046995.3,N
1512878775.6,286046993.4,N
1512878795.4,286046990.4,N
1512878815.3,286046990.3,N
1512878835.1,286046992.1,N
1512878836.0,286046992.1,N
1512878855.8,286046985.5,Y
1512878875.7,286046987.2,P
1512878895.5,286046990.0,N
1512878915.3,286046991.5,N
1512878935.2,286046985.6,Y
1512878955.9,286046993.7,P
1512878975.7,286046996.2,N
1512878995.6,286046994.0,N
1512879015.4,286046996.2,N
1512879035.2,286046995.4,N
1512879055.0,286047000.5,N
1512879056.0,286047000.5,N
1512879075.8,286046999.7,N
1512879095.6,286046998.7,N
1512879115.4,286047001.1,N
1512879135.3,286046998.2,N
1512879155.1,286046996.8,N
1512879175.8,286047001.2,N
1512879195.7,286047001.2,N
1512879215.5,286047003.2,N
1512879235.3,286047001.4,N
1512879255.2,286047000.1,N
1512879275.9,286047005.9,N
1512879295.7,286047001.0,N
1512879315.6,286047004.3,N
1512879335.4,286047003.6,N
1512879355.2,286047002.9,N
1512879375.0,286047001.5,N
1512879376.0,286047001.5,N
1512879395.8,286047005.1,N
1512879415.6,286047003.3,N
1512879435.4,286047001.7,N
1512879455.3,286047000.3,N
1512879475.1,286047004.9,N
1512879495.8,286047006.9,N
1512879515.7,286047006.3,N
1512879535.5,286047003.0,N
1512879555.3,286047003.9,N
1512879575.2,286047008.7,Y
1512879595.9,286047009.5,P
1512879615.7,286047013.7,P
1512879635.6,286047015.6,P
1512879655.4,286047011.1,N
1512879675.2,286047010.9,N
1512879695.1,286047014.0,Y
1512879696.0,286047014.0,P
1512879715.8,286047005.5,P
1512879735.6,286047002.8,N
1512879755.5,286047004.3,N
1512879775.3,286047003.3,N
1512879795.1,286047006.9,N
1512879815.9,286047007.0,N
1512879835.7,286047004.1,N
1512879855.5,286047003.4,N
1512879875.3,286047009.2,N
1512879895.2,286047005.0,N
1512879915.0,286047007.4,N
1512879915.9,286047007.4,N
1512879935.7,286047006.3,N
1512879955.6,286047008.3,N
1512879975.4,286047009.3,Y
1512879995.2,286047004.5,P
1512880015.1,286047005.9,P
1512880016.0,286047005.9,P
1512880035.8,286047001.3,N
1512880055.6,286047002.4,N
1512880075.5,286047002.3,N
1512880095.3,286047002.1,N
1512880115.1,286047001.8,N
1512880135.9,286047004.1,N
1512880155.7,286047002.1,N
1512880175.5,286047002.1,N
1512880195.4,286047002.8,N
1512880215.2,286047001.4,N
1512880235.0,286047003.0,N
1512880235.9,286047003.0,N
1512880255.8,286047005.7,Y
1512880275.6,286047002.6,P
1512880295.4,286047006.0,P
1512880315.2,286047001.6,N
1512880335.1,286047005.8,Y
1512880336.0,286047005.8,P
1512880355.8,286047002.0,N
1512880375.7,286047000.1,N
1512880395.5,286046999.0,N
1512880415.3,286047002.1,N
1512880435.1,286047004.7,N
1512880455.9,286047005.0,N
1512880475.7,286047006.3,N
1512880495.5,286047006.3,N
1512880515.4,286047007.1,N
1512880535.2,286047008.1,Y
1512880555.0,286047006.9,P
1512880555.9,286047006.9,P
1512880575.8,286047009.1,P
1512880595.6,286047008.8,Y
1512880615.4,286046998.6,P
1512880635.3,286046999.4,N
1512880655.1,286046998.3,N
1512880675.8,286047002.3,N
1512880695.7,286046998.8,N
1512880715.5,286047000.0,N
1512880735.3,286046999.2,N
1512880755.2,286047003.6,N
1512880775.9,286047001.9,N
1512880795.7,286047000.5,N
1512880815.6,286046999.2,N
1512880835.4,286046997.4,N
1512880855.2,286046999.2,N
1512880875.1,286047000.7,N
1512880876.0,286047000.7,N
1512880895.8,286047002.7,N
1512880915.6,286047004.6,N
1512880935.4,286047001.1,N
1512880955.3,286046994.9,N
1512880975.1,286046997.9,N
1512880995.8,286046996.8,N
1512881015.7,286046996.8,N
1512881035.5,286046997.1,N
1512881055.3,286046993.9,N
1512881075.2,286046994.1,N
1512881095.9,286046995.3,N
1512881115.7,286046993.9,N
1512881135.6,286046995.1,N
1512881155.4,286046994.5,N
1512881175.2,286046994.9,N
1512881195.0,286046997.1,N
1512881195.9,286046997.1,N
1512881215.8,286046997.2,N
1512881235.6,286046996.1,N
1512881255.4,286046995.7,N
1512881275.3,286046994.5,N
1512881295.1,286046990.8,Y
1512881315.8,286046992.8,P
1512881335.7,286046991.6,P
1512881355.5,286046987.3,P
1512881375.3,286046984.4,Y
1512881395.2,286046987.7,P
1512881415.0,286046985.7,P
1512881415.9,286046985.7,P
1512881435.8,286046982.6,Y
1512881455.6,286046993.4,P
1512881475.4,286046992.2,N
1512881495.2,286046987.0,P
1512881515.1,286046988.5,Y
1512881516.0,286046988.5,P
1512881535.8,286047000.2,N
1512881555.6,286047001.0,N
1512881575.5,286046999.9,N
1512881595.3,286047004.1,N
1512881615.1,286047004.0,N
1512881635.9,286047007.3,N
1512881655.7,286047006.0,N
1512881675.5,286047004.9,N
1512881695.4,286047008.3,N
1512881715.2,286047008.0,N
1512881735.0,286047012.2,N
1512881735.9,286047012.2,N
1512881755.8,286047013.8,N
1512881775.6,286047013.3,N
1512881795.4,286047013.5,N
1512881815.3,286047012.8,N
1512881835.1,286047016.7,N
1512881836.0,286047016.7,N
1512881855.8,286047018.2,N
1512881875.6,286047020.4,N
1512881895.5,286047020.7,N
1512881915.3,286047016.6,N
1512881935.1,286047016.7,N
1512881955.9,286047017.2,N
1512881975.7,286047016.5,N
1512881995.5,286047017.3,N
